Weather Roundup
Issued by NWS Chicago, IL

Home | Current Version | Previous Version | Text Only | Print | Product List | Glossary Off
Versions: 1 2 3 4 5 6 7 8 9 10 11 12 13 14 15 16 17 18 19 20 21 22 23 24 25 26 27 28 29 30 31 32 33 34 35 36 37 38 39 40 41 42 43 44 45 46 47 48 49 50

000
NZUS59 KLOT 212103
HRRLOT

CHICAGO AREA WEATHER ROUNDUP
NATIONAL WEATHER SERVICE CHICAGO/ROMEOVILLE IL
300 PM CST TUE FEB 21 2017

NOTE: "FAIR" INDICATES FEW OR NO CLOUDS BELOW 12,000 FEET WITH NO
SIGNIFICANT WEATHER AND/OR OBSTRUCTIONS TO VISIBILITY.

* THESE STATIONS ARE NOT UNDER NWS QUALITY CONTROL. THEY ALSO MAY NOT
  REPORT WEATHER SUCH AS PRECIPITATION OR FOG.

ILZ005-006-012>014-019>023-212200-
NORTHEAST ILLINOIS

CITY           SKY/WX    TMP DP  RH WIND       PRES   REMARKS
OHARE          CLOUDY    65  52  62 W7        29.89S
MIDWAY         CLOUDY    64  53  67 W8        29.90S
AURORA         PTSUNNY   64  55  72 SW13      29.91R
LANSING*       CLOUDY    64  57  78 S7        29.91R
JOLIET*        MOSUNNY   66  57  73 W6        29.91R
WAUKEGAN       MOSUNNY   64  41  42 SW6       29.89S
DUPAGE AIRPORT PTSUNNY   64  53  67 SW8       29.90S
WHEELING       MOSUNNY   65  47  52 SW7       29.90S
KANKAKEE*      CLOUDY    65  54  69 CALM      29.92S
MORRIS*        CLOUDY    66  55  67 CALM      29.90R
LEWIS AIRPORT* PTSUNNY   64  58  81 W7        29.91R
NORTHERLY ISL    N/A     62  52  69 SW10        N/A
$$

WIZ051-052-058>065-066-070>072-212200-
SOUTHEAST WISCONSIN

CITY           SKY/WX    TMP DP  RH WIND       PRES   REMARKS
MILWAUKEE      MOSUNNY   65  38  36 SW8       29.89S
KENOSHA*       SUNNY     65  40  39 CALM      29.89S
RACINE*        SUNNY     63  45  51 VRB3      29.90F
WAUKESHA       SUNNY     61  36  39 W7        29.90S
WEST BEND      SUNNY     63  32  31 SW6       29.88S
$$

INZ001>003-010>013-019-020-212200-
NORTHWEST INDIANA

CITY           SKY/WX    TMP DP  RH WIND       PRES   REMARKS
GARY*          PTSUNNY   68  52  56 SW9       29.90F
MICHIGAN CITY* NOT AVBL
RENSSELAER*    NOT AVBL
VALPARAISO     MOSUNNY   65  54  67 SW6       29.92S
$$

LMZ740>746-212200-
SOUTHERN LAKE MICHIGAN

STATION/POSITION TIME  SKY/WX   TEMP WIND        PRES    VSBY
                                AIR  DIR/SP/G
                 (UTC)          (F)  (DEG/KT/KT) (MB)    (MI)
HARRISON CRIB    2040            58  210/  2/  3   N/A
BURNHAM HARBOR   2100            62  290/  7/ 11   N/A
CALUMET HARBOR   2030            55   70/  4/  6 1011.9F
BURNS HARBOR     2040            51  320/  2/  4 1013.2F
MICHIGAN CITY    2040            52  360/  3/  4   N/A
$$

ABBREVIATIONS USED IN REMARKS
   TC - TEMPERATURE IN CELSIUS
  WCI - WIND CHILL INDEX
   HX - HEAT INDEX
  VSB - VISIBILITY
$$



USA.gov is the U.S. government's official web portal to all federal, state and local government web resources and services.